Location: Squirrel Cove
(50.1074°N, 124.9139°W)
Time: 18:49:48
(UTC-08:00)

Envisat - Pass Details

Date: 03 December 2022
Orbit: 763 x 765 km, 98.2° (Epoch: 05 February)

Event Time Altitude Azimuth Distance (km) Brightness Sun altitude
Rises 04:39:40 0° 14° (NNE) 3,246 6.4 -31.1°
Reaches altitude 10° 04:42:00 10° 16° (NNE) 2,316 5.6 -30.7°
Enters shadow 04:44:35 31° 20° (NNE) 1,334 4.3 -30.3°
